User: anonymous   Login
Location: ???????????
(38.2661°N, 23.2350°E)
Time: 01:59:10
(UTC+00:00)
Language:

Okean 1-7 - Orbit

View from above orbital plane
View from above orbital plane
View from above satellite
View from above satellite

Ground track
Ground track

The orbit data is extracted from the following two-line orbital elements,

1 23317U 94066A   24062.81289719  .00002528  00000-0  25087-3 0  9992
2 23317  82.5388 330.7806 0017576 196.5268 163.5381 14.91282252590414
Epoch (UTC): 02 March 2024 19:30:34
Eccentricity: 0.0017576
inclination: 82.5388°
perigee height: 581 km
apogee height: 606 km
right ascension of ascending node: 330.7806°
argument of perigee: 196.5268°
revolutions per day: 14.91282252
mean anomaly at epoch: 163.5381°
orbit number at epoch: 59041

The dashed part of the orbit path shows where the satellite is in the earth's shadow,  

DLR